Location: Caltech
(34.1382°N, 118.1253°W)
Time: 02:28:54
(UTC-07:00)

JAS-2 - Visible Passes

Search period start: 26 October 2014 00:00
Search period end: 04 November 2014 23:00
Orbit: 801 x 1321 km, 98.5° (Epoch: 25 October)

Date Brightness Start Highest point End Pass type
(mag) Time Alt. Az. Time Alt. Az. Time Alt. Az.
26 Oct 12.8 04:51:59 10° NE 04:56:36 17° E 05:01:09 10° SE visible
26 Oct 10.2 06:34:22 10° N 06:42:16 84° WNW 06:49:58 10° SSW visible
26 Oct 11.2 18:27:45 10° SSW 18:33:10 39° W 18:39:17 10° NNW visible
27 Oct 11.5 05:39:56 10° NNE 05:47:16 41° E 05:54:21 10° SSE visible
27 Oct 12.8 19:21:00 10° WSW 19:23:55 14° W 19:27:01 10° WNW visible
28 Oct 12.8 04:47:33 10° NE 04:51:45 15° E 04:55:52 10° ESE visible
28 Oct 10.2 06:29:35 10° NNE 06:37:30 89° WNW 06:45:09 10° SSW visible
28 Oct 11.1 18:22:38 10° SSW 18:28:14 43° W 18:34:36 10° NNW visible
29 Oct 11.6 05:35:14 10° NNE 05:42:28 38° E 05:49:23 10° SSE visible
29 Oct 12.7 19:15:29 10° WSW 19:18:58 16° W 19:22:41 10° NW visible
30 Oct 12.9 04:43:12 10° ENE 04:46:53 14° E 04:50:30 10° ESE visible
30 Oct 10.2 06:24:49 10° NNE 06:32:45 87° ESE 06:40:19 10° SSW visible
30 Oct 10.9 18:17:32 10° S 18:23:19 47° W 18:29:54 10° NNW visible
31 Oct 11.7 05:30:34 10° NNE 05:37:39 36° E 05:44:23 10° SSE visible
31 Oct 12.6 19:10:03 10° SW 19:14:01 17° W 19:18:16 10° NW visible
01 Nov 12.9 04:38:58 10° ENE 04:42:01 13° E 04:44:59 10° ESE visible
01 Nov 10.3 06:20:03 10° NNE 06:27:58 82° ESE 06:35:27 10° S visible
02 Nov 11.8 04:25:54 10° NNE 04:32:49 33° E 04:39:22 10° SSE visible
02 Nov 12.5 18:04:42 10° SW 18:09:04 19° W 18:13:48 10° NW visible
03 Nov 13.0 03:34:59 10° ENE 03:37:08 11° E 03:39:14 10° ESE visible
03 Nov 10.3 05:15:18 10° NNE 05:23:12 78° ESE 05:30:34 10° S visible
04 Nov 11.8 04:21:16 10° NE 04:27:59 31° E 04:34:18 10° SSE visible
04 Nov 12.4 17:59:24 10° SW 18:04:08 22° W 18:09:17 10° NW visible
